Погода в Северобайкальске

Россия / Республика Бурятия     55°38′09″N   109°20′08″E
темп.,
°C
ветер,
м/с
пор.,
м/с
влажн.,
%
обл.,
%
осадки,
мм/ч
давл.,
гПа
погр.,
м
9 марта, вт
вт923:00−16сз228750 0.0 102820
02:00−18сз228529 0.0 102820
05:00−17с129291 0.0 102520
08:00−15ссв119495 0.0 102222
11:00−10вюв1280100 0.0 1017398
14:00−8юв1271100 0.0 1014385
17:00−10ююв1288100 0.3 1015244
20:00−12ююв0197100 1.4 101730
10 марта, ср
ср1023:00−9з3791100 0.7 1021413
02:00−14зсз458161 0.8 102591
05:00−17зсз33841 0.0 102824
08:00−17зсз22847 0.0 103130
11:00−11ююз22760 0.0 1029605
14:00−10ю348333 0.0 1027703
17:00−11юв229299 0.1 1025290
20:00−16с229775 0.1 102622
11 марта, чт
чт1123:00−16ссз229373 0.0 102622
02:00−15ссз129279 0.1 102520
05:00−16с129655 0.1 102622
08:00−13ссв119570 0.2 102522
11:00−8юв219179 0.0 1022308
14:00−7юв228987 0.1 1020362
17:00−8в129597 0.0 1018167
20:00−12ссв229599 0.0 101922
12 марта, пт
пт1223:00−12с229470 0.0 101921
02:00−12с229369 0.1 101924
05:00−12ссв128671 0.0 101921
08:00−9ссв128686 0.0 101840
11:00−5в1187100 0.0 1016199
14:00−3ююв1294100 0.2 1015197
17:00−4ю239498 0.4 1016262
20:00−9ююз019995 0.4 101833
13 марта, сб
сб1323:00−9св1199100 0.1 101752
02:00−10св1199100 0.3 101451
05:00−9с0196100 0.3 101121
08:00−8ююв1197100 1.1 101044
11:00−6ююв1295100 0.1 1009241
14:00−4ююз1188100 0.5 1006435
17:00−5сз2384100 0.2 1005546
20:00−7сз5883100 0.3 1006311